STARLINK-35817, 66357

Orbit data source: Space-Track

STARLINK-35817, 66357 is a payload satellite owned by SpaceX/Seattle (US) in LEO that was launched on Thu, 06 Nov 2025 UTC via an FALCON 9 launch vehicle from the Air Force Western Test Range (AFWTR). Payload-class satellites include a variety of spacecraft equipped with specific instruments for various scientific and technological missions. These include communications satellites like Starlink; space stations such as the ISS; scientific satellites like the Hubble; Earth observation satellites from companies like Planet Labs, Umbra, and HawkEye 360; GPS; miniature CubeSats for education and research; and military/defense satellites.

Loading next visibility...
Identifier
66357, 2025-254K
Orbit
LEO
Country
Flag of USUS
Related business
Manufacturer
SpaceX/Seattle
Mission
Operational Commercial Communications
Bus & Motor
STARLINK V2MO, Unknown motor
Mass
575 kg wet, ~530 kg dry
Launch date (UTC)
2025-11-06 (7 months ago)
Launch vehicle
FALCON 9
Launch site
Air Force Western Test Range (AFWTR)
Object type
Payload
Rocket body
Debris
Shape & HBR
Box + 2 Pan, 17.7 m
Radar Cross Section
36.964 m², Large (>1 m²)

Expand to show TLE details & history
Last TLE update: 15 hours ago

TLE from 15 hours ago
0 STARLINK-35817
1 66357U 25254K   26171.22859536  .00015028  00000-0  51828-3 0  9995
2 66357  53.1595 116.2566 0001214  89.0363 271.0777 15.30212100 34677
Epoch: 2026-06-20T05:29Z
TLE epoch observation values (Epoch: 2026-06-20T05:29:10.639Z)
Latitude
0.00001°
Longitude
125.51605°
Altitude
476.063 km
Speed
7.629 km/s
True Right ascension
07h 45m 01s
True Declination
0° 00' 00"
Sunlit
Object was in daylight at epoch
Visualization orbit readout
Latitude
Unknown
Longitude
Unknown
Altitude
Unknown
Speed
Unknown
Apparent Right ascension
Unknown
Apparent Declination
Unknown
Sunlit
N/A
Visualization observer readout
Local Sidereal Time
07:17:51
Azimuth
Unknown
Elevation
Unknown
Doppler factor
Unknown
Orbital elements
Apogee altitude
476.267 km
Perigee altitude
474.603 km
Semi-major axis
6,853.572 km
Eccentricity
0.00012
Inclination
53.1595°
RAAN
116.2566°
Arg. of periapsis
89.0363°
True anomaly
271.06379°
Mean anomaly
271.0777°
Eccentric anomaly
271.07075°
Mean motion
3.82532 °/min
Orbital period
94.11 mins
BSTAR
0.00051828
Loading maneuver chart data...
Computing Atmospheric mass density...
Loading historical data...
Loading historical data...
Loading historical data...
Loading historical data...
Loading historical data...
Loading historical data...
Loading historical data...

Documentation

Showing up to 5 results
|